DLH648 UAAA-UACC

Flight info

Callsign DLH648
Flight time 1h 23m
Altitude 38000
Route ETEDA1B ETEDA W333 BANOS
Aircraft A343/H-SDE2E3FGHIJ4J5M1RWXY/LB1D1

Departure

Time 2026-05-08 09:46
Airport Almaty International Airport (UAAA)

Arrival

Time 2026-05-08 11:09
Airport Nursultan Nazarbayev International Airport (UACC)
Time Latitude Longitude Altitude Speed Heading
2026-05-08 09:40 43.35048 77.01396 2228 ft 0 kts 154°
2026-05-08 09:41 43.35041 77.01400 2233 ft 3 kts 154°
2026-05-08 09:41 43.35009 77.01421 2229 ft 7 kts 155°
2026-05-08 09:41 43.34945 77.01460 2225 ft 12 kts 156°
2026-05-08 09:42 43.34853 77.01509 2230 ft 13 kts 171°
2026-05-08 09:42 43.34806 77.01490 2227 ft 11 kts 201°
2026-05-08 09:42 43.34716 77.01446 2228 ft 16 kts 193°
2026-05-08 09:42 43.34600 77.01466 2229 ft 18 kts 173°
2026-05-08 09:43 43.34479 77.01531 2229 ft 19 kts 156°
2026-05-08 09:43 43.34347 77.01612 2230 ft 21 kts 154°
2026-05-08 09:43 43.34274 77.01660 2230 ft 11 kts 154°
2026-05-08 09:43 43.34204 77.01706 2229 ft 11 kts 152°
2026-05-08 09:44 43.34156 77.01781 2229 ft 10 kts 92°
2026-05-08 09:44 43.34170 77.01835 2226 ft 0 kts 58°
2026-05-08 09:44 43.34171 77.01839 2227 ft 0 kts 58°
2026-05-08 09:45 43.34202 77.01905 2231 ft 30 kts 57°
2026-05-08 09:45 43.34425 77.02353 2234 ft 81 kts 54°
2026-05-08 09:45 43.34831 77.03168 2223 ft 124 kts 56°
2026-05-08 09:45 43.35389 77.04293 2224 ft 160 kts 56°
2026-05-08 09:46 43.36066 77.05658 2347 ft 180 kts 55°
2026-05-08 09:46 43.36742 77.07043 3022 ft 170 kts 56°
2026-05-08 09:46 43.37431 77.08447 3328 ft 186 kts 54°
2026-05-08 09:46 43.38237 77.09959 3517 ft 207 kts 53°
2026-05-08 09:47 43.39131 77.11626 3769 ft 226 kts 53°
2026-05-08 09:47 43.40195 77.13379 3949 ft 251 kts 40°
2026-05-08 09:47 43.41792 77.14394 4381 ft 262 kts
2026-05-08 09:47 43.43625 77.14154 4904 ft 269 kts 346°
2026-05-08 09:48 43.45450 77.13492 5530 ft 273 kts 343°
2026-05-08 09:48 43.47296 77.12788 6234 ft 276 kts 343°
2026-05-08 09:48 43.49160 77.12090 6915 ft 279 kts 343°
2026-05-08 09:48 43.51021 77.11350 7729 ft 278 kts 340°
2026-05-08 09:49 43.52750 77.10156 8471 ft 278 kts 323°
2026-05-08 09:49 43.54463 77.08870 9174 ft 283 kts 333°
2026-05-08 09:49 43.56255 77.07729 9914 ft 285 kts 332°
2026-05-08 09:49 43.58072 77.06543 10411 ft 296 kts 332°
2026-05-08 09:50 43.59976 77.05266 10643 ft 314 kts 332°
2026-05-08 09:50 43.62013 77.03875 10897 ft 331 kts 332°
2026-05-08 09:50 43.64124 77.02426 11140 ft 347 kts 332°
2026-05-08 09:50 43.66332 77.00908 11431 ft 360 kts 332°
2026-05-08 09:51 43.68601 76.99344 11917 ft 366 kts 332°
2026-05-08 09:51 43.70889 76.97765 12520 ft 369 kts 332°
2026-05-08 09:51 43.73192 76.96173 13084 ft 372 kts 332°
2026-05-08 09:51 43.75520 76.94560 13659 ft 375 kts 332°
2026-05-08 09:52 43.77862 76.92935 14192 ft 378 kts 332°
2026-05-08 09:52 43.80225 76.91294 14755 ft 380 kts 332°
2026-05-08 09:52 43.82599 76.89643 15328 ft 383 kts 332°
2026-05-08 09:52 43.84983 76.87983 15914 ft 385 kts 332°
2026-05-08 09:53 43.87379 76.86312 16494 ft 387 kts 332°
2026-05-08 09:53 43.89794 76.84627 17058 ft 389 kts 332°
2026-05-08 09:53 43.92223 76.82929 17653 ft 392 kts 332°
2026-05-08 09:53 43.94663 76.81222 18215 ft 394 kts 332°
2026-05-08 09:54 43.97119 76.79503 18701 ft 397 kts 332°
2026-05-08 09:54 43.99603 76.77764 19171 ft 400 kts 332°
2026-05-08 09:54 44.02098 76.76015 19662 ft 403 kts 332°
2026-05-08 09:54 44.04614 76.74252 20130 ft 406 kts 332°
2026-05-08 09:55 44.07149 76.72472 20627 ft 408 kts 332°
2026-05-08 09:55 44.09690 76.70687 21078 ft 411 kts 332°
2026-05-08 09:55 44.12252 76.68885 21518 ft 414 kts 332°
2026-05-08 09:55 44.14834 76.67067 21978 ft 417 kts 332°
2026-05-08 09:56 44.17430 76.65237 22424 ft 419 kts 331°
2026-05-08 09:56 44.20043 76.63394 22861 ft 422 kts 331°
2026-05-08 09:56 44.22674 76.61535 23284 ft 425 kts 331°
2026-05-08 09:56 44.25323 76.59662 23662 ft 428 kts 331°
2026-05-08 09:57 44.30677 76.55872 24354 ft 434 kts 331°
2026-05-08 09:57 44.33341 76.53983 24691 ft 436 kts 331°
2026-05-08 09:57 44.36107 76.52075 25023 ft 439 kts 333°
2026-05-08 09:58 44.38919 76.50360 25365 ft 442 kts 335°
2026-05-08 09:58 44.41777 76.48739 25699 ft 445 kts 336°
2026-05-08 09:58 44.44657 76.47138 26021 ft 447 kts 336°
2026-05-08 09:58 44.47555 76.45517 26354 ft 449 kts 336°
2026-05-08 09:59 44.50455 76.43869 26664 ft 451 kts 335°
2026-05-08 09:59 44.53366 76.42191 26977 ft 454 kts 335°
2026-05-08 09:59 44.56289 76.40487 27280 ft 456 kts 335°
2026-05-08 09:59 44.59221 76.38765 27575 ft 458 kts 335°
2026-05-08 10:00 44.62172 76.37027 27865 ft 461 kts 334°
2026-05-08 10:00 44.65134 76.35280 28154 ft 463 kts 334°
2026-05-08 10:00 44.68106 76.33525 28442 ft 465 kts 334°
2026-05-08 10:00 44.71094 76.31760 28725 ft 467 kts 334°
2026-05-08 10:01 44.74097 76.29985 28993 ft 469 kts 334°
2026-05-08 10:01 44.77116 76.28199 29244 ft 472 kts 334°
2026-05-08 10:01 44.80150 76.26402 29493 ft 474 kts 334°
2026-05-08 10:01 44.83205 76.24592 29753 ft 476 kts 334°
2026-05-08 10:02 44.86259 76.22781 30041 ft 477 kts 334°
2026-05-08 10:02 44.89311 76.20969 30380 ft 476 kts 334°
2026-05-08 10:02 44.92364 76.19154 30689 ft 475 kts 334°
2026-05-08 10:02 44.95407 76.17343 31004 ft 474 kts 334°
2026-05-08 10:03 44.98453 76.15526 31303 ft 474 kts 334°
2026-05-08 10:03 45.01487 76.13716 31613 ft 473 kts 334°
2026-05-08 10:03 45.04519 76.11904 31910 ft 472 kts 334°
2026-05-08 10:03 45.07549 76.10091 32209 ft 471 kts 334°
2026-05-08 10:04 45.10565 76.08285 32500 ft 471 kts 334°
2026-05-08 10:04 45.13582 76.06475 32786 ft 470 kts 334°
2026-05-08 10:04 45.16599 76.04664 33054 ft 470 kts 334°
2026-05-08 10:04 45.19615 76.02851 33339 ft 469 kts 334°
2026-05-08 10:05 45.22582 76.01066 33621 ft 469 kts 334°
2026-05-08 10:05 45.25580 75.99260 33907 ft 468 kts 334°
2026-05-08 10:05 45.28577 75.97453 34153 ft 467 kts 334°
2026-05-08 10:05 45.31561 75.95651 34412 ft 466 kts 334°
2026-05-08 10:06 45.34548 75.93845 34584 ft 466 kts 334°
2026-05-08 10:06 45.37535 75.92035 34773 ft 467 kts 334°
2026-05-08 10:06 45.40521 75.90226 34985 ft 466 kts 333°
2026-05-08 10:06 45.43501 75.88420 35227 ft 465 kts 333°
2026-05-08 10:07 45.46474 75.86615 35447 ft 464 kts 333°
2026-05-08 10:07 45.49442 75.84811 35660 ft 464 kts 333°
2026-05-08 10:07 45.52413 75.83002 35798 ft 465 kts 333°
2026-05-08 10:07 45.55393 75.81186 35968 ft 465 kts 333°
2026-05-08 10:08 45.58365 75.79373 36178 ft 464 kts 333°
2026-05-08 10:08 45.61330 75.77562 36375 ft 463 kts 333°
2026-05-08 10:08 45.64296 75.75748 36576 ft 463 kts 333°
2026-05-08 10:08 45.67260 75.73934 36756 ft 462 kts 333°
2026-05-08 10:09 45.70214 75.72123 36945 ft 462 kts 333°
2026-05-08 10:09 45.73171 75.70310 37097 ft 462 kts 333°
2026-05-08 10:09 45.76129 75.68496 37279 ft 462 kts 333°
2026-05-08 10:09 45.79078 75.66683 37455 ft 461 kts 333°
2026-05-08 10:10 45.82023 75.64870 37633 ft 460 kts 333°
2026-05-08 10:10 45.84962 75.63060 37805 ft 460 kts 333°
2026-05-08 10:10 45.87914 75.61238 37916 ft 461 kts 333°
2026-05-08 10:10 45.90866 75.59414 37920 ft 462 kts 333°
2026-05-08 10:11 45.96770 75.55761 37923 ft 463 kts 333°
2026-05-08 10:11 46.02725 75.52067 37920 ft 469 kts 333°
2026-05-08 10:12 46.08763 75.48313 37929 ft 475 kts 333°
2026-05-08 10:12 46.14882 75.44501 37926 ft 480 kts 333°
2026-05-08 10:13 46.20993 75.40688 37932 ft 478 kts 333°
2026-05-08 10:13 46.27102 75.36890 37930 ft 477 kts 333°
2026-05-08 10:14 46.33218 75.33092 37938 ft 478 kts 333°
2026-05-08 10:14 46.39321 75.29290 37941 ft 477 kts 333°
2026-05-08 10:15 46.44390 75.26124 37955 ft 477 kts 333°
2026-05-08 10:15 46.50484 75.22308 37949 ft 477 kts 333°
2026-05-08 10:16 46.56573 75.18484 37952 ft 477 kts 333°
2026-05-08 10:16 46.62702 75.14626 37979 ft 477 kts 333°
2026-05-08 10:17 46.68778 75.10792 37970 ft 475 kts 333°
2026-05-08 10:17 46.74809 75.06977 37958 ft 475 kts 333°
2026-05-08 10:18 46.80874 75.03130 37972 ft 475 kts 333°
2026-05-08 10:18 46.86925 74.99283 37956 ft 473 kts 332°
2026-05-08 10:19 46.93006 74.95605 37957 ft 474 kts 335°
2026-05-08 10:20 47.02346 74.90596 37977 ft 474 kts 336°
2026-05-08 10:20 47.08528 74.87245 37953 ft 473 kts 335°
2026-05-08 10:21 47.14686 74.83845 37951 ft 473 kts 335°
2026-05-08 10:21 47.20850 74.80417 37950 ft 473 kts 335°
2026-05-08 10:22 47.27005 74.76985 37948 ft 473 kts 335°
2026-05-08 10:22 47.33160 74.73548 37951 ft 473 kts 335°
2026-05-08 10:23 47.39321 74.70100 37951 ft 473 kts 335°
2026-05-08 10:23 47.45477 74.66647 37958 ft 473 kts 335°
2026-05-08 10:24 47.51644 74.63177 37957 ft 474 kts 335°
2026-05-08 10:24 47.57816 74.59712 37965 ft 474 kts 335°
2026-05-08 10:25 47.63985 74.56256 37981 ft 474 kts 335°
2026-05-08 10:25 47.70170 74.52781 37973 ft 475 kts 335°
2026-05-08 10:26 47.76350 74.49299 37985 ft 475 kts 334°
2026-05-08 10:26 47.82532 74.45808 38001 ft 475 kts 334°
2026-05-08 10:27 47.88729 74.42298 37998 ft 476 kts 334°
2026-05-08 10:27 47.94921 74.38783 37996 ft 476 kts 334°
2026-05-08 10:28 48.01126 74.35252 37997 ft 476 kts 334°
2026-05-08 10:28 48.07333 74.31711 38001 ft 478 kts 334°
2026-05-08 10:29 48.13551 74.28155 38003 ft 478 kts 334°
2026-05-08 10:29 48.19747 74.24642 38010 ft 478 kts 334°
2026-05-08 10:30 48.25982 74.21117 38009 ft 478 kts 334°
2026-05-08 10:30 48.32210 74.17583 38008 ft 478 kts 334°
2026-05-08 10:31 48.38437 74.14036 38011 ft 478 kts 334°
2026-05-08 10:31 48.44668 74.10476 38017 ft 478 kts 334°
2026-05-08 10:32 48.50897 74.06907 38019 ft 479 kts 334°
2026-05-08 10:32 48.57128 74.03327 38016 ft 479 kts 334°
2026-05-08 10:33 48.63357 73.99739 38033 ft 479 kts 334°
2026-05-08 10:33 48.69585 73.96142 38011 ft 479 kts 334°
2026-05-08 10:34 48.75811 73.92537 38009 ft 479 kts 334°
2026-05-08 10:34 48.82033 73.88923 38017 ft 479 kts 334°
2026-05-08 10:35 48.88256 73.85300 38005 ft 479 kts 334°
2026-05-08 10:35 48.94473 73.81670 37999 ft 479 kts 334°
2026-05-08 10:36 49.00695 73.78032 37993 ft 479 kts 334°
2026-05-08 10:36 49.06918 73.74368 37997 ft 479 kts 333°
2026-05-08 10:37 49.13134 73.70687 37985 ft 479 kts 333°
2026-05-08 10:37 49.19351 73.67000 37976 ft 479 kts 333°
2026-05-08 10:38 49.25562 73.63310 37993 ft 479 kts 333°
2026-05-08 10:38 49.31778 73.59608 37971 ft 479 kts 333°
2026-05-08 10:39 49.37993 73.55896 37965 ft 479 kts 333°
2026-05-08 10:39 49.44203 73.52177 37962 ft 479 kts 333°
2026-05-08 10:40 49.50413 73.48448 37962 ft 479 kts 333°
2026-05-08 10:40 49.56619 73.44711 37965 ft 479 kts 333°
2026-05-08 10:41 49.60628 73.42292 37966 ft 479 kts 333°
2026-05-08 10:44 49.64548 73.39922 37866 ft 478 kts 333°
2026-05-08 10:44 49.67554 73.37787 37635 ft 472 kts 324°
2026-05-08 10:45 49.70237 73.34952 37371 ft 465 kts 314°
2026-05-08 10:45 49.72703 73.31726 37101 ft 464 kts 313°
2026-05-08 10:45 49.75110 73.28376 36842 ft 465 kts 312°
2026-05-08 10:45 49.77478 73.24971 36594 ft 465 kts 311°
2026-05-08 10:46 49.79833 73.21538 36324 ft 466 kts 311°
2026-05-08 10:46 49.82189 73.18092 36053 ft 466 kts 311°
2026-05-08 10:46 49.84555 73.14637 35712 ft 466 kts 311°
2026-05-08 10:46 49.86919 73.11194 35092 ft 467 kts 311°
2026-05-08 10:47 49.89296 73.07735 34357 ft 471 kts 311°
2026-05-08 10:47 49.90879 73.05432 33911 ft 472 kts 310°
2026-05-08 10:47 49.93281 73.01939 33114 ft 474 kts 310°
2026-05-08 10:47 49.95690 72.98435 32355 ft 475 kts 311°
2026-05-08 10:48 49.98107 72.94916 31572 ft 477 kts 311°
2026-05-08 10:48 50.00530 72.91380 30781 ft 479 kts 311°
2026-05-08 10:48 50.02960 72.87830 30023 ft 480 kts 311°
2026-05-08 10:48 50.05395 72.84269 29252 ft 479 kts 311°
2026-05-08 10:49 50.07813 72.80729 28664 ft 476 kts 311°
2026-05-08 10:49 50.10225 72.77193 28099 ft 474 kts 311°
2026-05-08 10:49 50.12613 72.73687 27552 ft 469 kts 311°
2026-05-08 10:49 50.14981 72.70204 27015 ft 467 kts 311°
2026-05-08 10:50 50.17316 72.66729 26448 ft 461 kts 309°
2026-05-08 10:50 50.19297 72.62888 25930 ft 450 kts 299°
2026-05-08 10:50 50.20994 72.58811 25373 ft 446 kts 297°
2026-05-08 10:50 50.22624 72.54723 24841 ft 442 kts 297°
2026-05-08 10:51 50.24246 72.50604 24289 ft 438 kts 296°
2026-05-08 10:51 50.25830 72.46562 23751 ft 435 kts 296°
2026-05-08 10:51 50.27405 72.42527 23144 ft 432 kts 296°
2026-05-08 10:51 50.28955 72.38547 22595 ft 427 kts 296°
2026-05-08 10:52 50.30491 72.34595 22057 ft 423 kts 296°
2026-05-08 10:52 50.32009 72.30684 21529 ft 418 kts 296°
2026-05-08 10:52 50.33509 72.26812 21010 ft 414 kts 296°
2026-05-08 10:52 50.34995 72.22970 20488 ft 410 kts 297°
2026-05-08 10:53 50.36463 72.19166 19978 ft 407 kts 297°
2026-05-08 10:53 50.37922 72.15381 19459 ft 404 kts 297°
2026-05-08 10:53 50.39364 72.11635 18961 ft 400 kts 297°
2026-05-08 10:53 50.40797 72.07910 18458 ft 397 kts 297°
2026-05-08 10:54 50.42217 72.04210 17931 ft 395 kts 297°
2026-05-08 10:54 50.43625 72.00536 17403 ft 391 kts 297°
2026-05-08 10:54 50.45020 71.96894 16924 ft 387 kts 297°
2026-05-08 10:54 50.46396 71.93296 16418 ft 383 kts 297°
2026-05-08 10:55 50.47759 71.89726 15940 ft 379 kts 297°
2026-05-08 10:55 50.49109 71.86183 15456 ft 376 kts 297°
2026-05-08 10:55 50.50446 71.82670 14975 ft 373 kts 297°
2026-05-08 10:55 50.51772 71.79184 14499 ft 370 kts 297°
2026-05-08 10:56 50.53085 71.75724 14010 ft 368 kts 297°
2026-05-08 10:56 50.54409 71.72230 13514 ft 366 kts 297°
2026-05-08 10:56 50.55705 71.68808 13025 ft 363 kts 297°
2026-05-08 10:56 50.56989 71.65413 12549 ft 360 kts 298°
2026-05-08 10:57 50.58263 71.62037 12086 ft 357 kts 298°
2026-05-08 10:57 50.59512 71.58725 11622 ft 354 kts 298°
2026-05-08 10:57 50.62003 71.52109 10841 ft 345 kts 298°
2026-05-08 10:58 50.63206 71.48913 10742 ft 332 kts 297°
2026-05-08 10:58 50.64378 71.45794 10631 ft 320 kts 297°
2026-05-08 10:58 50.65493 71.42823 10524 ft 310 kts 297°
2026-05-08 10:58 50.66572 71.39941 10399 ft 301 kts 297°
2026-05-08 10:59 50.67616 71.37146 10279 ft 292 kts 297°
2026-05-08 10:59 50.68633 71.34421 10148 ft 285 kts 297°
2026-05-08 10:59 50.69624 71.31766 10012 ft 278 kts 297°
2026-05-08 10:59 50.70603 71.29137 9738 ft 278 kts 297°
2026-05-08 11:00 50.71582 71.26504 9404 ft 279 kts 297°
2026-05-08 11:00 50.72563 71.23865 9071 ft 278 kts 297°
2026-05-08 11:00 50.73540 71.21235 8749 ft 277 kts 297°
2026-05-08 11:00 50.74656 71.18757 8421 ft 280 kts 311°
2026-05-08 11:01 50.76282 71.17056 8124 ft 286 kts 338°
2026-05-08 11:01 50.78256 71.16699 7808 ft 292 kts
2026-05-08 11:01 50.80159 71.17825 7483 ft 295 kts 31°
2026-05-08 11:01 50.81897 71.19535 7177 ft 294 kts 30°
2026-05-08 11:02 50.83635 71.21206 6860 ft 289 kts 29°
2026-05-08 11:02 50.86976 71.24343 6237 ft 265 kts 29°
2026-05-08 11:02 50.88515 71.25778 6050 ft 249 kts 29°
2026-05-08 11:03 50.89864 71.27366 5866 ft 234 kts 41°
2026-05-08 11:03 50.90996 71.29070 5600 ft 215 kts 43°
2026-05-08 11:03 50.92051 71.30722 5033 ft 214 kts 44°
2026-05-08 11:03 50.93120 71.32400 4254 ft 213 kts 27°
2026-05-08 11:04 50.94055 71.33885 2932 ft 187 kts 104°
2026-05-08 11:04 50.93691 71.34315 3025 ft 134 kts 229°
2026-05-08 11:04 50.94144 71.32511 2142 ft 217 kts 310°
2026-05-08 11:04 50.95038 71.30645 2380 ft 197 kts 293°
2026-05-08 11:05 50.95280 71.28714 2557 ft 171 kts 261°
2026-05-08 11:05 50.94782 71.27112 2691 ft 166 kts 220°
2026-05-08 11:05 50.93641 71.26825 2846 ft 186 kts 161°
2026-05-08 11:05 50.92752 71.28353 2967 ft 193 kts 109°
2026-05-08 11:06 50.92616 71.30413 2779 ft 181 kts 87°
2026-05-08 11:06 50.93038 71.32143 2643 ft 165 kts 54°
2026-05-08 11:06 50.93746 71.33542 2376 ft 159 kts 43°
2026-05-08 11:06 50.94567 71.34666 2309 ft 158 kts 39°
2026-05-08 11:07 50.95370 71.35864 2415 ft 158 kts 49°
2026-05-08 11:07 50.96145 71.37129 2572 ft 162 kts 45°
2026-05-08 11:07 50.96953 71.38369 2396 ft 163 kts 44°
2026-05-08 11:07 50.97763 71.39627 2144 ft 160 kts 45°
2026-05-08 11:08 50.98530 71.40823 1931 ft 154 kts 44°
2026-05-08 11:08 50.99312 71.42029 1712 ft 152 kts 45°
2026-05-08 11:08 51.00059 71.43201 1506 ft 150 kts 44°
2026-05-08 11:08 51.00798 71.44340 1301 ft 147 kts 45°
2026-05-08 11:09 51.01510 71.45457 1173 ft 138 kts 45°
2026-05-08 11:09 51.02085 71.46363 1165 ft 91 kts 42°
2026-05-08 11:09 51.02411 71.46860 1167 ft 39 kts 45°
2026-05-08 11:09 51.02548 71.47075 1165 ft 24 kts 44°
2026-05-08 11:10 51.02636 71.47112 1166 ft 8 kts 323°
2026-05-08 11:10 51.02675 71.47046 1164 ft 9 kts 314°
2026-05-08 11:10 51.02721 71.46970 1165 ft 10 kts 314°
2026-05-08 11:10 51.02771 71.46893 1163 ft 10 kts 316°
2026-05-08 11:11 51.02818 71.46805 1164 ft 10 kts 293°
2026-05-08 11:11 51.02799 71.46718 1166 ft 7 kts 225°
2026-05-08 11:11 51.02769 71.46670 1165 ft 0 kts 225°
2026-05-08 11:11 51.02769 71.46661 1164 ft 2 kts 257°
2026-05-08 11:12 51.02793 71.46617 1163 ft 9 kts 315°
2026-05-08 11:12 51.02814 71.46583 1164 ft 1 kts 314°
2026-05-08 11:12 51.02825 71.46566 1164 ft 3 kts 314°
2026-05-08 11:12 51.02832 71.46553 1163 ft 0 kts 315°